Tracking 21076 objects as of 10-Aug-2020
HD Live streaming from Space Station
objects crossing your sky now
Track the most recent launched group of Starlink satellites

USA 17

Track USA 17 now!
10-day predictions
USA 17 is classified as:


NORAD ID: 16625
Int'l Code: 1986-014F
Perigee: 399.0 km
Apogee: 1,782.7 km
Inclination: 63.3 °
Period: 106.9 minutes
Semi major axis: 7461 km
RCS: Unknown
Launch date: February 9, 1986
Source: United States (US)
Launch site: AIR FORCE WESTERN TEST RANGE (AFWTR)
aabbcc
Your satellite tracking list
Your tracking list is empty




NASA's NSSDC Master Catalog

Two Line Element Set (TLE):
1 16625U 86014F   20222.95097788  .00000814  00000-0  88462-4 0  9995
2 16625  63.3011  56.2762 0927149  76.5780 293.6774 13.46897246 52655
Source of the keplerian elements: AFSPC